SCP
1 1 1 1 1 1 1 1 1 1 1 1 0 0 0 0 0 0 0 0 0 0 0 0 0 0 0 0 0 0 0 0 0 0 0 0 0 0 0 0 0 0 0
2 2 2 2 2 2 2 2 1 1 1 1 0 0 0 0 0 1 1 1 1 1 1 1 1 1 1 0 0 0 0 0 0 0 0 0 0 0 0 0 0 0 0
2 2 2 3 3 2 2 2 2 1 1 1 1 0 0 1 1 1 1 1 1 1 1 1 1 1 1 1 1 1 0 0 0 0 0 0 0 0 0 0 0 0 0
2 2 3 3 3 2 2 2 2 2 1 1 1 1 1 1 1 1 1 1 2 2 2 2 2 2 2 2 2 1 1 1 0 0 0 0 0 0 0 0 0 0 0
2 2 2 2 3 2 2 2 2 1 1 1 1 1 1 1 1 1 2 2 2 2 3 3 3 3 2 2 2 1 1 1 1 0 0 0 0 0 0 0 0 0 0
2 2 2 2 2 2 2 2 2 2 1 1 2 2 2 1 1 1 1 2 2 3 3 4 4 3 2 2 1 1 1 1 1 1 1 1 1 0 0 0 0 0 0
2 2 2 2 2 2 2 2 2 2 2 2 2 2 2 2 1 0 0 1 2 3 4 4 4 4 3 3 2 1 1 1 1 1 1 1 1 1 1 0 0 0 0
3 3 2 2 2 2 2 2 2 3 3 2 2 3 3 3 1 0 0 1 1 2 3 4 4 4 3 3 3 2 2 1 1 1 1 1 1 1 1 1 0 0 0
3 3 2 2 2 2 2 2 3 3 3 2 2 3 4 3 1 0 0 1 1 2 2 3 3 3 2 2 2 3 3 2 1 1 1 0 0 0 1 1 1 0 0
3 2 2 2 2 2 2 3 3 3 3 3 3 3 4 3 2 0 0 1 1 2 2 3 2 2 1 1 1 2 2 3 2 2 2 1 1 1 1 1 1 1 0
1 1 1 1 1 1 2 2 2 3 3 3 3 3 3 2 1 0 0 0 1 2 2 3 2 1 0 0 1 1 2 2 3 3 3 3 2 2 2 1 1 1 1
1 1 1 1 1 1 1 1 1 2 2 2 2 2 2 1 1 0 0 0 1 1 2 2 2 1 0 0 0 0 1 1 2 2 3 3 3 3 3 3 2 2 1
0 0 0 0 0 0 1 1 1 1 1 1 1 1 1 1 0 0 0 0 0 0 1 1 1 0 0 0 0 0 0 0 1 1 2 2 3 3 4 4 3 2 2
0 0 0 0 0 0 0 0 0 0 0 0 0 0 0 0 0 0 0 0 0 0 0 0 0 0 0 0 0 0 0 1 1 1 1 2 2 3 5 5 4 3 2
0 0 0 0 0 0 0 0 0 0 0 0 0 0 0 0 0 0 0 0 0 0 0 0 0 0 0 1 1 1 1 1 1 1 2 2 3 4 5 5 4 3 2
0 0 0 0 0 0 0 0 0 0 0 0 0 0 0 0 0 0 0 0 0 0 0 0 0 1 1 1 1 1 1 1 1 1 2 2 3 4 4 4 3 2 2
0 0 0 0 0 0 0 0 0 0 0 0 0 0 0 0 0 0 0 0 0 0 0 0 0 1 1 1 1 1 1 2 2 1 1 2 2 3 3 3 2 2 1
0 0 0 0 0 0 0 0 0 0 0 0 0 0 0 0 0 0 0 0 0 0 0 0 1 1 1 1 1 1 1 2 2 1 1 1 2 2 2 2 2 1 1
0 0 0 0 0 0 0 0 0 0 0 0 0 0 0 0 0 0 0 0 0 0 0 0 1 1 1 1 1 1 1 1 1 1 1 1 1 1 1 1 1 1 1
0 0 0 0 0 0 0 0 0 0 0 0 0 0 0 0 0 0 0 0 0 0 0 0 1 1 1 1 1 1 1 1 1 1 1 1 1 1 1 1 1 1 1
0 0 0 0 0 0 0 0 0 0 0 0 0 0 0 0 0 0 0 0 0 0 0 0 0 0 1 1 1 1 0 0 1 1 1 1 1 1 1 1 1 1 1
0 0 0 0 0 0 0 0 0 0 0 0 0 0 0 0 0 0 0 0 0 0 0 0 0 0 0 0 0 0 0 0 0 0 0 0 0 1 1 1 1 1 1
0 0 0 0 0 0 0 0 0 0 0 0 0 0 0 0 0 0 0 0 0 0 0 0 0 0 0 0 0 0 0 0 0 0 0 0 0 0 0 0 0 0 0
0 0 0 0 0 0 0 0 0 0 0 0 0 0 0 0 0 0 0 0 0 0 0 0 0 0 0 0 0 0 0 0 0 0 0 0 0 0 0 0 0 0 0
0 0 0 0 0 0 0 0 0 0 0 0 0 0 0 0 0 0 0 0 0 0 0 0 0 0 0 0 0 0 0 0 0 0 0 0 0 0 0 0 0 0 0
0 0 0 0 0 0 0 0 0 0 0 0 0 0 0 0 0 0 0 0 0 0 0 0 0 0 0 0 0 0 0 0 0 0 0 0 0 0 0 0 0 0 0
Wind_Speed
13 12 11 11 11 11 10 10 9 8 8 9 9 9 9 9 9 9 9 7 8 8 7 8 8 8 6 6 6 6 6 7 8 8 6 5 5 8 7 7 8 9 8
13 12 12 11 11 11 11 11 10 10 10 10 10 10 10 10 10 10 11 10 10 10 9 9 9 8 9 8 7 8 7 7 9 10 8 7 8 8 8 9 9 9 9
13 12 12 12 12 12 11 11 11 10 10 10 11 11 11 11 11 11 11 11 11 11 11 11 10 10 10 9 9 9 8 8 8 9 10 7 8 8 8 9 11 9 10
12 12 12 12 11 11 11 11 11 11 11 11 11 12 12 12 12 12 12 12 12 12 12 12 12 12 12 11 10 11 10 10 9 10 10 9 8 8 8 9 9 9 9
10 11 10 10 9 10 10 10 10 11 11 11 11 12 12 12 12 13 13 13 13 13 13 13 14 13 13 11 10 10 10 10 10 10 10 9 9 7 8 8 9 8 8
8 9 8 8 8 9 9 9 9 10 10 11 12 12 13 12 11 13 13 13 13 13 14 14 14 15 15 16 15 14 13 13 12 11 11 11 10 10 8 9 9 9 9
4 4 4 5 6 6 7 8 8 9 10 11 12 12 14 14 12 14 16 14 14 14 14 14 13 13 15 15 18 21 20 20 18 15 15 14 12 10 10 12 11 11 10
3 2 1 1 2 2 4 5 6 6 7 9 10 11 12 13 11 13 13 15 16 16 16 16 16 15 15 15 15 16 17 18 19 18 17 16 14 12 11 12 12 12 12
7 5 4 3 1 1 1 2 3 5 6 7 8 9 11 11 8 10 11 12 13 17 17 17 17 17 16 15 16 17 17 15 16 17 17 16 14 11 9 10 12 12 12
8 7 6 5 4 4 3 3 3 4 5 6 7 7 9 10 6 6 9 10 13 14 14 15 17 18 17 15 17 17 18 17 16 14 16 17 18 17 16 16 15 14 13
8 8 7 6 5 5 4 4 4 4 4 5 6 7 7 8 7 6 7 8 11 12 12 12 12 14 18 17 17 17 18 16 14 14 14 14 15 14 15 17 16 15 14
7 8 7 6 6 5 5 4 4 5 5 5 5 6 6 5 5 4 5 9 11 12 12 12 11 9 9 13 15 16 17 14 13 13 14 14 14 14 13 15 16 17 15
6 6 6 6 5 6 5 5 4 4 5 6 6 7 7 6 5 5 6 9 11 10 11 13 14 14 13 12 17 18 16 13 14 15 15 15 14 13 12 11 13 14 16
5 4 4 4 4 5 5 5 6 6 7 7 8 8 8 8 8 8 9 9 9 11 11 11 13 17 16 16 14 13 14 14 15 15 15 14 13 12 12 12 12 12 13
3 4 4 4 5 5 5 5 5 6 5 7 9 9 10 10 10 12 11 12 13 13 14 13 13 13 13 12 12 13 12 13 14 15 14 13 12 12 11 11 11 12 13
4 5 5 5 5 6 6 6 3 6 5 9 10 9 9 9 11 13 15 15 16 15 12 13 14 14 14 14 13 13 12 12 13 13 13 13 13 12 11 11 11 12 13
6 6 6 7 7 7 7 8 9 7 7 10 11 11 11 12 13 14 16 16 18 15 12 13 13 13 13 13 13 13 13 12 11 11 12 11 12 12 11 11 11 12 12
7 5 6 7 8 8 8 9 9 10 10 9 6 5 7 10 13 15 15 14 13 10 10 11 12 12 12 13 13 12 12 11 10 10 11 12 12 12 11 12 11 12 12
7 7 7 8 9 9 9 9 9 11 10 10 10 9 7 9 12 13 11 10 11 11 11 11 11 11 11 12 11 11 12 11 11 10 10 11 11 11 11 11 11 12 12
5 2 5 9 9 9 8 9 9 9 10 10 10 10 10 12 11 11 10 10 10 11 11 11 11 12 11 11 10 9 10 10 10 9 9 9 9 10 11 12 11 11 10
8 6 5 8 8 8 9 9 9 9 10 10 10 9 10 12 11 11 10 10 10 11 11 11 11 11 11 10 9 9 10 9 8 8 8 8 9 9 10 10 11 11 11
7 7 8 8 8 8 9 9 9 9 10 11 10 10 10 10 10 10 10 10 10 10 10 10 10 10 10 9 9 8 8 8 7 7 7 7 7 8 9 9 10 10 11
7 8 8 7 8 7 8 8 9 9 10 10 10 10 10 10 10 10 10 10 10 10 10 10 10 10 9 8 8 7 7 7 7 6 6 7 7 7 8 9 11 11 11
7 8 8 8 8 8 8 9 9 9 10 10 10 10 10 10 10 11 11 11 10 10 10 9 10 13 15 11 7 6 7 8 8 7 9 8 7 7 7 8 9 11 11
7 7 7 7 7 8 8 9 9 9 10 10 10 10 10 10 10 10 10 10 12 11 13 11 9 10 13 14 12 10 9 9 8 9 9 7 8 8 8 9 8 9 10
7 7 7 6 7 7 8 8 9 10 9 9 9 10 10 10 10 10 10 10 11 11 11 10 12 13 14 11 12 11 9 9 9 9 8 8 8 7 7 7 10 9 10
Wind_Direction
209 210 215 211 209 208 212 212 210 211 203 207 210 212 216 217 215 219 237 231 231 238 238 237 239 258 263 259 249 253 255 259 268 275 273 260 252 267 276 269 265 262 249
209 210 212 213 211 211 211 211 208 208 209 209 212 215 220 221 219 221 229 232 232 236 238 239 242 239 238 254 259 255 255 259 265 273 276 270 251 249 257 264 266 261 266
207 209 211 212 211 213 215 209 207 207 212 214 214 218 223 225 224 226 230 234 235 236 237 237 238 240 241 243 245 252 252 247 249 262 266 266 264 256 258 254 256 257 266
210 211 213 215 214 213 213 210 208 210 213 217 219 223 226 228 229 229 229 232 235 237 238 239 238 236 237 239 241 244 250 256 253 255 262 261 255 250 251 260 258 241 246
213 214 216 217 216 216 214 213 212 213 217 219 223 226 229 231 231 229 230 232 233 236 236 236 237 236 238 237 243 240 238 243 250 252 255 258 255 252 250 253 259 263 253
216 220 217 215 212 214 216 216 217 220 224 225 227 230 232 235 226 220 231 242 239 239 240 239 238 230 229 227 239 248 252 249 251 256 259 258 259 258 257 262 266 263 262
198 212 212 218 217 219 222 223 224 226 228 230 233 235 239 241 230 216 218 239 247 246 244 243 243 239 225 229 225 227 237 242 247 253 260 262 262 252 255 256 252 261 269
110 105 110 233 238 236 237 241 244 244 243 242 243 243 246 247 230 221 218 234 248 250 247 244 244 248 239 233 235 230 230 229 226 230 244 253 255 260 255 256 266 264 259
75 66 55 46 32 342 303 292 279 270 263 260 257 256 256 260 243 226 222 247 247 250 251 248 246 246 241 226 236 243 242 241 233 227 231 240 249 253 253 255 252 252 255
65 62 58 52 49 39 22 351 325 294 281 278 276 274 273 275 269 235 224 256 260 260 255 252 246 244 245 220 231 240 244 244 246 233 223 234 241 240 228 237 247 250 254
57 57 51 45 47 44 31 14 346 320 311 301 298 291 285 282 280 252 229 261 275 275 271 266 261 236 230 225 227 240 245 251 250 245 240 233 229 230 227 221 228 240 248
59 56 48 35 24 32 24 10 353 333 311 300 300 297 292 290 286 287 250 249 270 282 280 278 281 290 251 236 232 241 246 250 253 251 246 242 237 233 228 225 222 227 239
57 52 43 36 27 16 1 356 342 338 325 326 322 317 315 318 304 255 252 257 256 266 277 280 285 287 278 257 239 235 236 239 242 244 244 244 243 241 239 230 228 229 235
41 32 22 11 3 11 341 343 342 340 338 334 326 320 317 311 311 330 328 311 288 274 280 287 274 260 253 257 257 236 233 237 237 239 242 244 245 242 235 234 231 225 228
16 357 344 346 357 330 329 330 323 331 344 317 320 319 317 315 338 346 322 311 311 312 312 294 282 274 264 255 249 244 238 234 233 239 243 245 243 240 237 233 233 235 236
340 340 334 333 339 324 322 316 262 260 242 237 249 272 299 305 314 309 302 292 285 284 286 279 278 276 272 267 262 255 246 239 237 237 237 239 240 240 237 235 231 233 238
329 330 326 327 325 319 318 316 315 297 245 239 240 243 257 284 290 291 290 289 284 275 269 272 275 277 277 274 268 262 258 251 241 239 240 240 239 240 240 238 237 236 237
313 319 308 313 315 313 313 313 311 312 313 311 291 256 262 272 280 282 284 290 288 276 279 285 286 285 284 282 278 273 266 258 246 239 239 239 238 239 239 239 239 239 240
314 323 330 320 310 309 311 311 310 311 311 312 313 311 313 305 290 283 287 295 305 307 304 300 297 295 293 289 284 280 275 267 256 245 240 237 236 236 238 238 239 240 243
305 317 307 309 308 315 317 315 313 313 312 313 313 318 328 323 317 318 316 316 313 310 308 306 306 302 298 293 288 281 276 269 263 254 247 241 238 236 237 240 240 239 238
320 322 302 301 320 325 322 318 317 317 317 318 316 329 336 316 312 315 316 316 317 316 313 311 308 305 300 296 292 286 280 273 267 260 252 247 243 239 238 239 240 240 240
324 325 327 329 328 332 328 319 322 323 321 319 318 320 317 309 313 316 317 317 316 314 313 310 306 304 303 304 300 292 285 279 275 269 263 256 250 246 243 241 242 242 241
328 330 331 334 332 334 321 327 330 328 324 321 320 319 319 319 317 318 317 315 315 314 314 312 310 308 310 310 308 305 302 299 296 290 278 268 261 253 250 248 248 248 247
342 340 341 342 341 338 335 334 333 329 326 324 324 322 321 321 321 321 320 319 317 314 314 315 315 318 322 321 318 319 325 327 322 311 300 289 278 270 265 259 256 254 253
357 356 350 348 343 339 335 333 331 329 327 325 324 322 322 322 320 318 318 316 316 314 315 315 314 318 321 324 327 332 339 338 331 321 307 295 285 278 273 268 263 261 259
7 0 352 347 342 339 335 332 331 331 329 327 325 323 323 322 320 321 321 320 318 316 316 316 318 320 321 323 330 336 334 327 321 316 306 296 290 283 279 273 272 267 265